Weather History for KOOA - February, 2014

Change the Weather History Date:

Wednesday, February 5, 2014

  Actual Average (KOTM) Record (KOTM)
Temperature  
Mean Temperature 4 °F 24 °F  
Max Temperature 13 °F 33 °F 67 °F (1946)
Min Temperature -5 °F 15 °F -28 °F (1936)
Degree Days  
Heating Degree Days 61 41  
Month to date heating degree days 206  
Since 1 July heating degree days 4028  
Cooling Degree Days 0 0  
Month to date cooling degree days 0  
Year to date cooling degree days 0  
Moisture  
Dew Point -1 °F    
Average Humidity 76    
Maximum Humidity 86    
Minimum Humidity 67    
Precipitation  
Precipitation 0.00 in 0.03 in 1.50 in (1911)
Month to date precipitation 0.15  
Year to date precipitation 1.05  
Sea Level Pressure  
Sea Level Pressure 30.43 in    
Wind  
Wind Speed 18 mph (NW)    
Max Wind Speed 24 mph    
Max Gust Speed 31 mph    
Visibility 5 miles    
Events Snow    
T = Trace of Precipitation, MM = Missing Value Source: NWS Daily Summary

Daily Weather History Graph

Daily Weather History Graph

Search for Another Location

Airport or City:

Trip Planner

Search our weather history database for the weather conditions in past years. The results will help you decide how hot, cold, wet, or windy it might be!

Date:

Astronomy

Feb. 05, 2014 Rise Set
Actual Time 7:16 AM CST 5:31 PM CST
Civil Twilight 6:47 AM CST 6:00 PM CST
Nautical Twilight 6:15 AM CST 6:33 PM CST
Astronomical Twilight 5:42 AM CST 7:05 PM CST
Moon 10:27 AM CST (2/5) No Moon Set
Length of Visible Light 11h 12m
Length of Day
10h 14m
Waxing Crescent, 39% of the Moon is Illuminated
Feb 5
Waxing Crescent
Feb 6
First Quarter
Feb 14
Full
Feb 22
Last Quarter
Mar 1
New

Hourly Weather History & Observations

Time (CST) Temp. Windchill Dew Point Humidity Pressure Visibility Wind Dir Wind Speed Gust Speed Precip Events Conditions
12:15 AM 13.1 °F -4.2 °F 9.5 °F 86% 30.21 in 1.2 mi North 18.4 mph - N/A Snow Light Snow
12:35 AM 13.1 °F -4.6 °F 9.5 °F 86% 30.20 in 1.2 mi North 19.6 mph - N/A Snow Light Snow
12:55 AM 12.9 °F -5.7 °F 9.3 °F 86% 30.20 in 1.8 mi North 21.9 mph 25.3 mph N/A Snow Light Snow
1:15 AM 12.7 °F -5.5 °F 8.8 °F 84% 30.19 in 2.5 mi North 20.7 mph - N/A Snow Light Snow
1:35 AM 12.0 °F -6.5 °F 8.1 °F 84% 30.20 in 2.5 mi North 20.7 mph - N/A Snow Light Snow
1:55 AM 11.7 °F -7.0 °F 7.7 °F 84% 30.20 in 2.5 mi North 20.7 mph - N/A Snow Light Snow
2:15 AM 11.3 °F -7.0 °F 7.0 °F 83% 30.21 in 2.5 mi North 19.6 mph - N/A Snow Light Snow
2:35 AM 10.6 °F -8.8 °F 6.3 °F 83% 30.22 in 2.5 mi NNW 21.9 mph 26.5 mph N/A Snow Light Snow
2:55 AM 9.7 °F -9.6 °F 5.5 °F 83% 30.22 in 2.5 mi NNW 20.7 mph 25.3 mph N/A Snow Light Snow
3:15 AM 9.3 °F -10.0 °F 5.0 °F 83% 30.23 in 2.0 mi NNW 20.7 mph 29.9 mph N/A Snow Light Snow
3:35 AM 8.6 °F -10.5 °F 4.3 °F 83% 30.24 in 1.8 mi NNW 19.6 mph 29.9 mph N/A Snow Light Snow
3:55 AM 8.4 °F -10.8 °F 4.1 °F 83% 30.24 in 1.5 mi NNW 19.6 mph 26.5 mph N/A Snow Light Snow
4:15 AM 8.1 °F -10.7 °F 3.7 °F 83% 30.25 in 1.2 mi NNW 18.4 mph 28.8 mph N/A Snow Light Snow
4:35 AM 7.7 °F -12.2 °F 3.6 °F 83% 30.26 in 2.0 mi NNW 20.7 mph 25.3 mph N/A Snow Light Snow
4:55 AM 7.7 °F -11.7 °F 3.2 °F 82% 30.27 in 3.0 mi NNW 19.6 mph - N/A Snow Light Snow
5:15 AM 7.3 °F -12.6 °F 2.3 °F 80% 30.27 in 2.5 mi NNW 20.7 mph - N/A Snow Light Snow
5:35 AM 6.8 °F -13.8 °F 2.1 °F 81% 30.30 in 1.8 mi NNW 21.9 mph 25.3 mph N/A Snow Light Snow
5:55 AM 6.4 °F -14.3 °F 1.4 °F 80% 30.31 in 3.0 mi NNW 21.9 mph 25.3 mph N/A Snow Light Snow
6:15 AM 6.1 °F -14.3 °F 1.2 °F 80% 30.32 in 2.5 mi NNW 20.7 mph 26.5 mph N/A Snow Light Snow
6:35 AM 5.9 °F -13.5 °F 1.0 °F 80% 30.33 in 2.5 mi NNW 18.4 mph 28.8 mph N/A Snow Light Snow
6:55 AM 5.7 °F -16.1 °F 0.7 °F 80% 30.34 in 2.5 mi NNW 24.2 mph 27.6 mph N/A Snow Light Snow
7:15 AM 5.5 °F -15.9 °F 0.3 °F 79% 30.35 in 3.0 mi NNW 23.0 mph 28.8 mph N/A Snow Light Snow
7:35 AM 5.4 °F -16.2 °F -0.0 °F 78% 30.37 in 4.0 mi NNW 23.0 mph 29.9 mph N/A Snow Light Snow
7:55 AM 5.0 °F -15.7 °F -0.4 °F 78% 30.38 in 3.0 mi NNW 20.7 mph 31.1 mph N/A Snow Light Snow
8:15 AM 5.0 °F -16.2 °F -0.4 °F 78% 30.39 in 1.0 mi NNW 21.9 mph 27.6 mph N/A Snow Light Snow
8:35 AM 4.8 °F -14.9 °F -1.1 °F 76% 30.40 in 1.8 mi NNW 18.4 mph - N/A Snow Light Snow
8:55 AM 4.8 °F -13.2 °F -1.3 °F 76% 30.42 in 2.5 mi NNW 15.0 mph - N/A Snow Light Snow
9:15 AM 5.0 °F -15.7 °F -0.8 °F 77% 30.43 in 1.5 mi NNW 20.7 mph 25.3 mph N/A Snow Light Snow
9:35 AM 5.4 °F -14.2 °F -0.4 °F 77% 30.44 in 1.5 mi NNW 18.4 mph 24.2 mph N/A Snow Light Snow
9:55 AM 5.7 °F -14.3 °F -0.4 °F 76% 30.44 in 2.0 mi NNW 19.6 mph 23.0 mph N/A Snow Light Snow
10:15 AM 6.1 °F -11.6 °F -0.9 °F 73% 30.46 in 3.0 mi NNW 15.0 mph 26.5 mph N/A Snow Light Snow
10:35 AM 5.9 °F -13.0 °F -1.3 °F 72% 30.46 in 4.0 mi NW 17.3 mph - N/A Snow Light Snow
10:55 AM 6.4 °F -13.3 °F -1.3 °F 71% 30.46 in 1.2 mi NNW 19.6 mph - N/A   Haze
11:15 AM 6.4 °F -12.8 °F -1.5 °F 70% 30.47 in 1.0 mi NNW 18.4 mph - N/A   Haze
11:35 AM 6.4 °F -13.8 °F -1.3 °F 71% 30.47 in 3.0 mi NNW 20.7 mph - N/A   Haze
11:55 AM 6.8 °F -13.4 °F -0.4 °F 72% 30.46 in 5.0 mi NNW 20.7 mph - N/A   Haze
12:15 PM 7.2 °F -11.9 °F -0.4 °F 71% 30.45 in 5.0 mi NNW 18.4 mph - N/A   Haze
12:35 PM 7.2 °F -11.9 °F -0.4 °F 71% 30.45 in 7.0 mi NW 18.4 mph 23.0 mph N/A   Clear
12:55 PM 7.5 °F -11.4 °F -0.4 °F 70% 30.45 in 5.0 mi NW 18.4 mph 24.2 mph N/A   Haze
1:15 PM 7.7 °F -11.2 °F -0.0 °F 71% 30.48 in 7.0 mi NW 18.4 mph 23.0 mph N/A   Clear
1:35 PM 7.7 °F -12.2 °F -0.0 °F 71% 30.48 in 4.0 mi NW 20.7 mph - N/A   Haze
1:55 PM 7.2 °F -13.8 °F -0.6 °F 71% 30.47 in 3.0 mi NW 23.0 mph - N/A   Haze
2:15 PM 7.5 °F -12.4 °F -0.8 °F 69% 30.47 in 3.0 mi NW 20.7 mph 26.5 mph N/A Snow Light Snow
2:35 PM 7.5 °F -12.4 °F -1.3 °F 67% 30.49 in 5.0 mi NNW 20.7 mph 26.5 mph N/A   Haze
2:55 PM 7.2 °F -13.8 °F -1.1 °F 69% 30.49 in 7.0 mi NNW 23.0 mph - N/A   Mostly Cloudy
3:15 PM 7.0 °F -13.1 °F -1.3 °F 69% 30.50 in 7.0 mi NNW 20.7 mph 27.6 mph N/A   Mostly Cloudy
3:35 PM 6.8 °F -12.9 °F -2.0 °F 67% 30.50 in 7.0 mi NW 19.6 mph 28.8 mph N/A   Mostly Cloudy
3:55 PM 6.4 °F -12.8 °F -1.8 °F 69% 30.51 in 7.0 mi NW 18.4 mph - N/A   Scattered Clouds
4:15 PM 5.7 °F -12.0 °F -2.9 °F 68% 30.53 in 10.0 mi NW 15.0 mph - N/A   Clear
4:35 PM 5.4 °F -13.1 °F -3.1 °F 68% 30.52 in 10.0 mi NNW 16.1 mph - N/A   Clear
4:55 PM 4.6 °F -12.8 °F -4.0 °F 67% 30.52 in 10.0 mi NW 13.8 mph 23.0 mph N/A   Clear
5:15 PM 4.1 °F -13.4 °F -4.4 °F 68% 30.53 in 10.0 mi NW 13.8 mph - N/A   Clear
5:35 PM 2.7 °F -13.8 °F -4.9 °F 71% 30.55 in 10.0 mi NW 11.5 mph - N/A   Clear
5:55 PM 2.3 °F -14.2 °F -5.3 °F 71% 30.55 in 10.0 mi NW 11.5 mph - N/A   Scattered Clouds
6:15 PM 1.2 °F -14.7 °F -5.3 °F 74% 30.56 in 10.0 mi NW 10.4 mph - N/A   Scattered Clouds
6:35 PM 0.3 °F -13.8 °F -6.0 °F 75% 30.56 in 10.0 mi WNW 8.1 mph - N/A   Scattered Clouds
6:55 PM -0.6 °F -16.9 °F -6.9 °F 75% 30.57 in 10.0 mi WNW 10.4 mph - N/A   Scattered Clouds
7:15 PM -1.3 °F -18.7 °F -7.6 °F 75% 30.57 in 10.0 mi NW 11.5 mph - N/A   Clear
7:35 PM -0.4 °F -15.7 °F -7.6 °F 72% 30.57 in 10.0 mi NW 9.2 mph - N/A   Scattered Clouds
7:55 PM -0.4 °F -16.7 °F -7.6 °F 72% 30.57 in 10.0 mi NW 10.4 mph - N/A   Scattered Clouds
8:15 PM -0.4 °F -15.7 °F -7.8 °F 71% 30.57 in 10.0 mi NW 9.2 mph - N/A   Scattered Clouds
8:35 PM -2.0 °F -18.7 °F -9.2 °F 71% 30.56 in 10.0 mi NW 10.4 mph - N/A   Scattered Clouds
8:55 PM -2.2 °F -18.9 °F -9.2 °F 72% 30.56 in 10.0 mi NW 10.4 mph - N/A   Scattered Clouds
9:15 PM -2.7 °F -18.6 °F -9.8 °F 72% 30.56 in 10.0 mi NW 9.2 mph - N/A   Clear
9:35 PM -3.1 °F -17.9 °F -9.8 °F 73% 30.56 in 10.0 mi NW 8.1 mph - N/A   Clear
9:55 PM -3.5 °F -18.4 °F -10.3 °F 73% 30.56 in 10.0 mi NW 8.1 mph - N/A   Clear
10:15 PM -4.9 °F -22.3 °F -11.4 °F 74% 30.57 in 10.0 mi WNW 10.4 mph - N/A   Clear
10:35 PM -4.5 °F -23.6 °F -10.7 °F 75% 30.57 in 10.0 mi WNW 12.7 mph - N/A   Clear
10:55 PM -5.8 °F -24.4 °F -11.6 °F 76% 30.58 in 10.0 mi WNW 11.5 mph - N/A   Clear
11:15 PM -5.4 °F -23.9 °F -11.2 °F 76% 30.58 in 10.0 mi WNW 11.5 mph - N/A   Scattered Clouds
11:35 PM -5.8 °F -24.4 °F -11.4 °F 77% 30.57 in 10.0 mi WNW 11.5 mph - N/A   Scattered Clouds
11:55 PM -5.1 °F -21.5 °F -10.8 °F 76% 30.57 in 10.0 mi NW 9.2 mph - N/A   Scattered Clouds